This is the latest recevied weather packets stored in our database for station/object KK4KTV-13. If no packets are shown the sender has not sent any weather packets the latest 10 day(s).
| Time | Temp. | Humidity | Pressure | Rain* | Wind** | Luminosity | Snow |
|---|---|---|---|---|---|---|---|
| 1778082991 | 11.11° C | 99% | 1011.5 hPa | 0 mm | - | 196 W/m² | - |
| 1778082682 | 10.56° C | 99% | 1011.8 hPa | 0 mm | - | 71 W/m² | - |
| 1778081545 | 10.56° C | 99% | 1011.7 hPa | 0 mm | - | 71 W/m² | - |
| 1778081241 | 10.56° C | 99% | 1011.5 hPa | 0 mm | - | 71 W/m² | - |
| 1778080938 | 10.56° C | 99% | 1011.5 hPa | 0 mm | - | 71 W/m² | - |
| 1778080638 | 10.56° C | 99% | 1011.7 hPa | 0 mm | - | 71 W/m² | - |
| 1778080334 | 10.56° C | 99% | 1011.5 hPa | 0 mm | - | 71 W/m² | - |
| 1778080030 | 10.56° C | 99% | 1011.4 hPa | 0 mm | - | 71 W/m² | - |
| 1778079727 | 10.56° C | 99% | 1011.2 hPa | 0 mm | - | 71 W/m² | - |
| 1778079424 | 10.56° C | 99% | 1011.3 hPa | 0 mm | - | 71 W/m² | - |
| 1778079121 | 10.56° C | 99% | 1010.9 hPa | 0 mm | - | 56 W/m² | - |
| 1778078819 | 10.56° C | 99% | 1011.2 hPa | 1.78 mm | - | 56 W/m² | - |
| 1778078515 | 10.56° C | 99% | 1011.3 hPa | 1.78 mm | - | 56 W/m² | - |
| 1778078213 | 10° C | 99% | 1011 hPa | 0 mm | - | 57 W/m² | - |
| 1778077910 | 10° C | 99% | 1011 hPa | 0 mm | - | 57 W/m² | - |
| 1778077609 | 10° C | 99% | 1011 hPa | 0 mm | - | 57 W/m² | - |
| 1778077306 | 10° C | 99% | 1011 hPa | 0 mm | - | 57 W/m² | - |
| 1778077004 | 10° C | 99% | 1011 hPa | 0 mm | - | 57 W/m² | - |
| 1778076702 | 10° C | 99% | 1010.9 hPa | 0 mm | - | 57 W/m² | - |
| 1778076399 | 10° C | 99% | 1010.7 hPa | 0 mm | - | 57 W/m² | - |
| 1778076096 | 10° C | 99% | 1011 hPa | 0 mm | - | 57 W/m² | - |
| 1778075793 | 10° C | 99% | 1011.1 hPa | 0 mm | - | 58 W/m² | - |
| 1778075489 | 10.56° C | 99% | 1011.2 hPa | 0 mm | - | 57 W/m² | - |
| 1778075186 | 10.56° C | 99% | 1010.7 hPa | 0 mm | - | 57 W/m² | - |
| 1778074882 | 10° C | 99% | 1010.3 hPa | 0 mm | - | 54 W/m² | - |
* Rain latest hour (hover to see other rain measurements)
** Current wind speed in m/s (hover to see current wind gust speed)